Alpine, TX

3:36 AM CST on February 10, 2016 (GMT -0600)
Alpine

Weather History for KE38 - May, 2013

Change the Weather History Date:

Thursday, May 30, 2013

  Actual Average (KMRF) Record (KMRF)
Temperature  
Mean Temperature 74 °F -  
Max Temperature 92 °F 86 °F - (-1)
Min Temperature 58 °F 55 °F - (-1)
Cooling Degree Days 10    
Growing Degree Days 24 (Base 50)    
Moisture  
Dew Point 28 °F    
Average Humidity 18    
Maximum Humidity 26    
Minimum Humidity 11    
Precipitation  
Precipitation 0.00 in - - ()
Sea Level Pressure  
Sea Level Pressure 29.97 in    
Wind  
Wind Speed 6 mph (WSW)    
Max Wind Speed 20 mph    
Max Gust Speed 26 mph    
Visibility 10 miles    
Events      
Averages and records for this station are not official NWS values.
T = Trace of Precipitation, MM = Missing Value Source: NWS Daily Summary

Daily Weather History Graph

Daily Weather History Graph

Search for Another Location

Airport or City:

Trip Planner

Search our weather history database for the weather conditions in past years. The results will help you decide how hot, cold, wet, or windy it might be!

Date:

Astronomy

May. 30, 2013 Rise Set
Actual Time 6:53 AM CDT 8:51 PM CDT
Civil Twilight 6:26 AM CDT 9:18 PM CDT
Nautical Twilight 5:53 AM CDT 9:51 PM CDT
Astronomical Twilight 5:18 AM CDT 10:26 PM CDT
Moon 1:07 AM CDT (5/30) 12:48 PM CDT (5/30)
Length of Visible Light 14h 51m
Length of Day
13h 57m
Waning Gibbous, 62% of the Moon is Illuminated
May 30
Waning Gibbous
May 31
Last Quarter
Jun 8
New
Jun 16
First Quarter
Jun 23
Full

Hourly Weather History & Observations

Time (CDT) Temp. Dew Point Humidity Pressure Visibility Wind Dir Wind Speed Gust Speed Precip Events Conditions
12:15 AM 64.2 °F 20.7 °F 19% 29.90 in 10.0 mi Calm Calm - N/A   Clear
12:35 AM 62.6 °F 20.3 °F 20% 29.90 in 10.0 mi SW 3.5 mph - N/A   Clear
12:55 AM 64.0 °F 20.3 °F 19% 29.91 in 10.0 mi Calm Calm - N/A   Clear
1:15 AM 64.4 °F 20.3 °F 18% 29.91 in 10.0 mi WSW 3.5 mph - N/A   Clear
1:35 AM 61.3 °F 21.0 °F 21% 29.91 in 10.0 mi SSW 4.6 mph - N/A   Clear
1:55 AM 61.0 °F 21.2 °F 22% 29.91 in 10.0 mi SSW 5.8 mph - N/A   Clear
2:15 AM 60.8 °F 21.0 °F 22% 29.91 in 10.0 mi SSW 8.1 mph - N/A   Clear
2:35 AM 63.0 °F 21.9 °F 21% 29.91 in 10.0 mi SSW 5.8 mph - N/A   Clear
2:55 AM 59.9 °F 21.6 °F 23% 29.92 in 10.0 mi SSW 4.6 mph - N/A   Clear
3:15 AM 59.7 °F 22.1 °F 24% 29.92 in 10.0 mi SW 8.1 mph - N/A   Clear
3:35 AM 59.2 °F 22.8 °F 25% 29.92 in 10.0 mi SW 8.1 mph - N/A   Clear
3:55 AM 59.9 °F 23.0 °F 24% 29.91 in 10.0 mi WSW 9.2 mph - N/A   Clear
4:15 AM 59.0 °F 23.2 °F 25% 29.91 in 10.0 mi Calm Calm - N/A   Clear
4:35 AM 63.5 °F 22.8 °F 21% 29.92 in 10.0 mi SW 10.4 mph - N/A   Clear
4:55 AM 66.7 °F 22.6 °F 19% 29.92 in 10.0 mi WSW 11.5 mph - N/A   Clear
5:15 AM 67.3 °F 23.5 °F 19% 29.92 in 10.0 mi West 10.4 mph - N/A   Clear
5:35 AM 63.0 °F 23.9 °F 23% 29.93 in 10.0 mi WSW 9.2 mph - N/A   Clear
5:55 AM 60.1 °F 23.9 °F 25% 29.94 in 10.0 mi WSW 9.2 mph - N/A   Clear
6:15 AM 59.7 °F 23.9 °F 25% 29.95 in 10.0 mi Calm Calm - N/A   Clear
6:35 AM 58.5 °F 23.9 °F 26% 29.96 in 10.0 mi Calm Calm - N/A   Clear
6:55 AM 61.9 °F 25.2 °F 25% 29.97 in 10.0 mi ENE 3.5 mph - N/A   Clear
7:15 AM 69.6 °F 26.2 °F 20% 29.98 in 10.0 mi SW 3.5 mph - N/A   Clear
7:35 AM 66.9 °F 26.8 °F 22% 29.99 in 10.0 mi Calm Calm - N/A   Clear
7:55 AM 69.8 °F 27.9 °F 21% 30.00 in 7.0 mi Calm Calm - N/A   Clear
8:15 AM 73.8 °F 29.3 °F 19% 30.00 in 10.0 mi SSW 3.5 mph - N/A   Clear
8:35 AM 75.4 °F 30.0 °F 19% 30.00 in 10.0 mi South 3.5 mph - N/A   Clear
8:55 AM 77.0 °F 30.9 °F 19% 30.01 in 10.0 mi SSE 3.5 mph - N/A   Clear
9:15 AM 79.0 °F 31.6 °F 18% 30.02 in 10.0 mi NNE 3.5 mph - N/A   Clear
9:35 AM 79.5 °F 31.5 °F 17% 30.02 in 10.0 mi West 9.2 mph - N/A   Clear
9:55 AM 81.0 °F 32.0 °F 17% 30.03 in 10.0 mi Calm Calm - N/A   Clear
10:15 AM 82.6 °F 31.8 °F 16% 30.03 in 10.0 mi NW 12.7 mph 19.6 mph N/A   Clear
10:35 AM 82.4 °F 31.8 °F 16% 30.03 in 10.0 mi NW 9.2 mph 20.7 mph N/A   Clear
10:55 AM 83.8 °F 31.1 °F 15% 30.03 in 10.0 mi NNW 13.8 mph 21.9 mph N/A   Clear
11:15 AM 84.0 °F 31.3 °F 15% 30.03 in 10.0 mi NNW 11.5 mph - N/A   Clear
11:35 AM 84.9 °F 30.9 °F 14% 30.02 in 10.0 mi North 16.1 mph 24.2 mph N/A   Clear
11:55 AM 86.7 °F 31.6 °F 14% 30.03 in 10.0 mi NW 12.7 mph 21.9 mph N/A   Clear
12:35 PM 86.5 °F 30.4 °F 13% 30.03 in 10.0 mi SW 10.4 mph 19.6 mph N/A   Clear
12:55 PM 86.9 °F 31.3 °F 14% 30.02 in 10.0 mi WNW 15.0 mph 19.6 mph N/A   Clear
1:15 PM 87.8 °F 30.4 °F 13% 30.02 in 10.0 mi West 9.2 mph 18.4 mph N/A   Clear
1:35 PM 86.9 °F 32.0 °F 14% 30.02 in 10.0 mi West 3.5 mph 16.1 mph N/A   Clear
1:55 PM 89.6 °F 32.2 °F 13% 30.01 in 10.0 mi WNW 13.8 mph 20.7 mph N/A   Clear
2:15 PM 89.6 °F 31.6 °F 13% 30.01 in 10.0 mi WSW 10.4 mph 24.2 mph N/A   Clear
2:35 PM 89.6 °F 31.1 °F 12% 30.00 in 10.0 mi West 15.0 mph 26.5 mph N/A   Clear
2:55 PM 90.0 °F 29.1 °F 11% 30.00 in 10.0 mi West 11.5 mph 21.9 mph N/A   Clear
3:15 PM 89.8 °F 32.0 °F 13% 30.00 in 10.0 mi West 10.4 mph 26.5 mph N/A   Clear
3:35 PM 90.3 °F 31.5 °F 12% 29.99 in 10.0 mi West 18.4 mph 25.3 mph N/A   Clear
4:35 PM 91.2 °F 31.5 °F 12% 29.97 in 10.0 mi West 19.6 mph 24.2 mph N/A   Clear
4:55 PM 91.0 °F 31.8 °F 12% 29.97 in 10.0 mi WNW 8.1 mph 17.3 mph N/A   Clear
6:15 PM 90.9 °F 31.6 °F 12% 29.96 in 10.0 mi WSW 10.4 mph 18.4 mph N/A   Clear
6:35 PM 91.2 °F 31.6 °F 12% 29.95 in 10.0 mi West 9.2 mph - N/A   Clear
6:55 PM 90.7 °F 31.8 °F 12% 29.96 in 10.0 mi WSW 12.7 mph - N/A   Clear
7:15 PM 89.8 °F 32.0 °F 13% 29.95 in 10.0 mi SW 12.7 mph 18.4 mph N/A   Clear
7:35 PM 89.6 °F 32.0 °F 13% 29.96 in 10.0 mi West 9.2 mph 16.1 mph N/A   Clear
8:15 PM 87.3 °F 32.0 °F 14% 29.96 in 10.0 mi West 10.4 mph - N/A   Clear
8:35 PM 84.6 °F 31.6 °F 15% 29.97 in 10.0 mi West 8.1 mph - N/A   Clear
9:15 PM 77.7 °F 31.5 °F 18% 29.98 in 10.0 mi WSW 6.9 mph - N/A   Clear
9:35 PM 75.6 °F 31.6 °F 20% 29.99 in 10.0 mi West 6.9 mph - N/A   Clear
9:55 PM 73.8 °F 31.6 °F 21% 29.99 in 10.0 mi WSW 5.8 mph - N/A   Clear
10:15 PM 73.2 °F 31.6 °F 22% 30.00 in 10.0 mi SW 6.9 mph - N/A   Clear
10:35 PM 72.0 °F 31.5 °F 22% 30.00 in 10.0 mi SW 8.1 mph - N/A   Clear
10:55 PM 71.4 °F 31.6 °F 23% 30.00 in 10.0 mi SW 6.9 mph - N/A   Clear
11:15 PM 71.6 °F 31.6 °F 23% 30.01 in 10.0 mi WSW 8.1 mph - N/A   Clear
11:35 PM 68.5 °F 31.5 °F 25% 30.01 in 10.0 mi WSW 8.1 mph - N/A   Clear
11:55 PM 68.4 °F 31.6 °F 26% 30.01 in 10.0 mi WSW 8.1 mph - N/A   Clear